This is the latest recevied weather packets stored in our database for station/object F4JUT-10. If no packets are shown the sender has not sent any weather packets the latest 10 day(s).
| Time | Temp. | Humidity | Pressure | Rain* | Wind** | Luminosity | Snow |
|---|---|---|---|---|---|---|---|
| 1777321968 | 16.11° C | 41% | 1019.9 hPa | - | - | - | - |
| 1777321068 | 16.67° C | 40% | 1019.8 hPa | - | - | - | - |
| 1777320168 | 17.22° C | 39% | 1019.8 hPa | - | - | - | - |
| 1777319267 | 17.78° C | 39% | 1019.7 hPa | - | - | - | - |
| 1777318367 | 18.33° C | 37% | 1019.7 hPa | - | - | - | - |
| 1777317467 | 18.89° C | 36% | 1019.6 hPa | - | - | - | - |
| 1777316567 | 19.44° C | 35% | 1019.6 hPa | - | - | - | - |
| 1777315667 | 20° C | 34% | 1019.4 hPa | - | - | - | - |
| 1777314767 | 20.56° C | 32% | 1019.4 hPa | - | - | - | - |
| 1777313867 | 21.11° C | 32% | 1019.3 hPa | - | - | - | - |
| 1777312966 | 21.67° C | 30% | 1019.1 hPa | - | - | - | - |
| 1777312066 | 22.22° C | 29% | 1019 hPa | - | - | - | - |
| 1777311166 | 22.78° C | 27% | 1018.9 hPa | - | - | - | - |
| 1777310266 | 22.78° C | 25% | 1019 hPa | - | - | - | - |
| 1777309366 | 23.89° C | 25% | 1019 hPa | - | - | - | - |
| 1777308466 | 24.44° C | 23% | 1019.2 hPa | - | - | - | - |
| 1777307566 | 25.56° C | 22% | 1019.3 hPa | - | - | - | - |
| 1777306666 | 26.67° C | 20% | 1019.3 hPa | - | - | - | - |
| 1777305765 | 27.78° C | 20% | 1019.4 hPa | - | - | - | - |
| 1777304865 | 28.89° C | 19% | 1019.5 hPa | - | - | - | - |
| 1777303965 | 30° C | 18% | 1019.6 hPa | - | - | - | - |
| 1777303065 | 30.56° C | 17% | 1019.6 hPa | - | - | - | - |
| 1777302165 | 31.67° C | 17% | 1019.8 hPa | - | - | - | - |
| 1777301265 | 32.78° C | 15% | 1019.9 hPa | - | - | - | - |
| 1777300365 | 33.33° C | 15% | 1020 hPa | - | - | - | - |
* Rain since midnight (hover to see other rain measurements)
** Current wind speed in m/s (hover to see current wind gust speed)